AFR1383 EHAM-EBBR

Flight info

Callsign AFR1383
Flight time 0h 27m
Altitude 12000
Route WOODY
Aircraft B737/M-SDE2E3FGHIRWXY/LB1

Departure

Time 2026-04-17 07:44
Airport Amsterdam Airport Schiphol (EHAM)

Arrival

Time 2026-04-17 08:11
Airport Brussels Airport (EBBR)
Time Latitude Longitude Altitude Speed Heading
2026-04-17 07:39 52.31472 4.77368 -2 ft 0 kts 44°
2026-04-17 07:42 52.31491 4.77397 -2 ft 17 kts 41°
2026-04-17 07:42 52.31633 4.77510 -2 ft 25 kts 20°
2026-04-17 07:43 52.31761 4.77734 -3 ft 8 kts 34°
2026-04-17 07:43 52.31774 4.77786 -3 ft 1 kts 94°
2026-04-17 07:43 52.31773 4.77806 -3 ft 0 kts 96°
2026-04-17 07:43 52.31780 4.78077 -3 ft 70 kts 88°
2026-04-17 07:44 52.31808 4.79394 48 ft 153 kts 91°
2026-04-17 07:44 52.31831 4.81232 777 ft 175 kts 89°
2026-04-17 07:44 52.31805 4.83219 1779 ft 181 kts 96°
2026-04-17 07:44 52.31644 4.85452 2361 ft 212 kts 106°
2026-04-17 07:45 52.30887 4.87577 2727 ft 230 kts 144°
2026-04-17 07:45 52.29430 4.88646 3388 ft 234 kts 174°
2026-04-17 07:45 52.27845 4.88320 4159 ft 231 kts 205°
2026-04-17 07:45 52.26492 4.86927 4959 ft 232 kts 218°
2026-04-17 07:46 52.25190 4.85349 5689 ft 235 kts 217°
2026-04-17 07:46 52.23862 4.83742 6433 ft 239 kts 217°
2026-04-17 07:46 52.22500 4.82104 7235 ft 240 kts 217°
2026-04-17 07:46 52.21076 4.80753 8011 ft 244 kts 197°
2026-04-17 07:47 52.19381 4.80453 8812 ft 246 kts 186°
2026-04-17 07:47 52.17660 4.80237 9536 ft 250 kts 187°
2026-04-17 07:47 52.15919 4.79998 10272 ft 252 kts 188°
2026-04-17 07:47 52.14159 4.79755 10950 ft 255 kts 188°
2026-04-17 07:48 52.12385 4.79509 11627 ft 257 kts 188°
2026-04-17 07:48 52.10594 4.79259 12294 ft 260 kts 188°
2026-04-17 07:48 52.08785 4.79008 12971 ft 262 kts 188°
2026-04-17 07:48 52.06957 4.78753 13632 ft 267 kts 188°
2026-04-17 07:49 52.05033 4.78481 13919 ft 291 kts 188°
2026-04-17 07:49 52.02932 4.78184 14134 ft 316 kts 188°
2026-04-17 07:49 52.00657 4.77867 14316 ft 340 kts 187°
2026-04-17 07:49 51.98227 4.77530 14483 ft 362 kts 187°
2026-04-17 07:50 51.95640 4.77171 14638 ft 383 kts 187°
2026-04-17 07:50 51.92931 4.76749 14890 ft 397 kts 191°
2026-04-17 07:50 51.90319 4.75356 15408 ft 398 kts 210°
2026-04-17 07:50 51.87907 4.73160 16140 ft 398 kts 209°
2026-04-17 07:51 51.85418 4.71147 16745 ft 402 kts 207°
2026-04-17 07:51 51.82882 4.69198 17182 ft 405 kts 207°
2026-04-17 07:51 51.80374 4.67286 17045 ft 390 kts 207°
2026-04-17 07:51 51.77980 4.65453 17011 ft 372 kts 207°
2026-04-17 07:52 51.75694 4.63690 17074 ft 359 kts 207°
2026-04-17 07:52 51.73436 4.61938 17144 ft 359 kts 207°
2026-04-17 07:52 51.71189 4.60193 17219 ft 359 kts 207°
2026-04-17 07:52 51.68935 4.58444 17306 ft 360 kts 207°
2026-04-17 07:53 51.66673 4.56693 17384 ft 361 kts 207°
2026-04-17 07:53 51.64406 4.54942 17462 ft 362 kts 207°
2026-04-17 07:53 51.62137 4.53193 17538 ft 362 kts 207°
2026-04-17 07:53 51.59863 4.51442 17626 ft 362 kts 207°
2026-04-17 07:54 51.57588 4.49692 17693 ft 363 kts 207°
2026-04-17 07:54 51.55309 4.47940 17771 ft 363 kts 207°
2026-04-17 07:54 51.53032 4.46192 17844 ft 363 kts 207°
2026-04-17 07:54 51.50754 4.44444 17931 ft 363 kts 207°
2026-04-17 07:55 51.48473 4.42696 18008 ft 363 kts 207°
2026-04-17 07:55 51.46190 4.40947 18089 ft 364 kts 207°
2026-04-17 07:55 51.43901 4.39196 18169 ft 365 kts 207°
2026-04-17 07:55 51.41606 4.37443 18230 ft 366 kts 207°
2026-04-17 07:56 51.39307 4.35689 18323 ft 366 kts 207°
2026-04-17 07:56 51.37036 4.33959 18402 ft 366 kts 207°
2026-04-17 07:56 51.34733 4.32204 18323 ft 370 kts 207°
2026-04-17 07:56 51.32385 4.30474 18048 ft 371 kts 202°
2026-04-17 07:57 51.29856 4.29737 17753 ft 372 kts 181°
2026-04-17 07:57 51.27313 4.30482 17494 ft 375 kts 163°
2026-04-17 07:57 51.24993 4.32414 17142 ft 380 kts 147°
2026-04-17 07:57 51.23656 4.34232 16924 ft 383 kts 136°
2026-04-17 07:58 51.22134 4.37748 16567 ft 387 kts 121°
2026-04-17 07:58 51.20905 4.41572 16211 ft 386 kts 120°
2026-04-17 07:58 51.19666 4.45368 15679 ft 387 kts 121°
2026-04-17 07:58 51.18231 4.48959 15135 ft 380 kts 135°
2026-04-17 07:59 51.16351 4.51840 14663 ft 371 kts 141°
2026-04-17 07:59 51.14497 4.54669 14158 ft 368 kts 138°
2026-04-17 07:59 51.12700 4.57533 13614 ft 363 kts 140°
2026-04-17 07:59 51.10622 4.59659 13018 ft 351 kts 165°
2026-04-17 08:00 51.08256 4.59966 12492 ft 339 kts 193°
2026-04-17 08:00 51.06062 4.58730 12009 ft 331 kts 205°
2026-04-17 08:00 51.03930 4.57367 11472 ft 329 kts 204°
2026-04-17 08:00 51.01887 4.55773 10978 ft 325 kts 208°
2026-04-17 08:01 50.99816 4.54494 10791 ft 314 kts 195°
2026-04-17 08:01 50.97648 4.54210 10199 ft 320 kts 174°
2026-04-17 08:01 50.95509 4.55396 9298 ft 335 kts 151°
2026-04-17 08:01 50.93707 4.57787 8651 ft 340 kts 133°
2026-04-17 08:02 50.92360 4.60799 8457 ft 331 kts 120°
2026-04-17 08:02 50.91510 4.64135 8397 ft 324 kts 107°
2026-04-17 08:02 50.91161 4.67589 8187 ft 322 kts 95°
2026-04-17 08:02 50.91250 4.71143 7686 ft 327 kts 84°
2026-04-17 08:03 50.91700 4.74757 6925 ft 341 kts 73°
2026-04-17 08:03 50.92786 4.78073 6667 ft 338 kts 52°
2026-04-17 08:03 50.94521 4.80468 6619 ft 327 kts 30°
2026-04-17 08:03 50.96629 4.81611 6498 ft 319 kts
2026-04-17 08:04 50.98812 4.81512 6338 ft 312 kts 350°
2026-04-17 08:04 51.00906 4.80570 5927 ft 315 kts 336°
2026-04-17 08:04 51.02841 4.78910 5497 ft 318 kts 325°
2026-04-17 08:04 51.04505 4.76709 5514 ft 300 kts 314°
2026-04-17 08:05 51.05872 4.74448 5768 ft 270 kts 311°
2026-04-17 08:05 51.07131 4.72165 5076 ft 282 kts 309°
2026-04-17 08:05 51.08404 4.69733 4340 ft 291 kts 308°
2026-04-17 08:05 51.09676 4.67196 3875 ft 289 kts 307°
2026-04-17 08:06 51.10827 4.64865 4517 ft 243 kts 306°
2026-04-17 08:06 51.11715 4.62870 4854 ft 208 kts 301°
2026-04-17 08:06 51.12342 4.60734 3843 ft 228 kts 284°
2026-04-17 08:06 51.12383 4.58113 2842 ft 239 kts 247°
2026-04-17 08:07 51.11405 4.56311 2712 ft 213 kts 208°
2026-04-17 08:07 51.10022 4.55863 2408 ft 196 kts 176°
2026-04-17 08:07 51.08718 4.56036 2302 ft 177 kts 172°
2026-04-17 08:07 51.07531 4.56239 2149 ft 168 kts 173°
2026-04-17 08:08 51.06389 4.56374 1944 ft 161 kts 181°
2026-04-17 08:08 51.05256 4.56159 1784 ft 177 kts 190°
2026-04-17 08:08 51.04017 4.55693 1808 ft 189 kts 195°
2026-04-17 08:08 51.02745 4.55126 1966 ft 191 kts 193°
2026-04-17 08:09 51.01425 4.54472 1919 ft 201 kts 196°
2026-04-17 08:09 51.00085 4.53843 1980 ft 203 kts 196°
2026-04-17 08:09 50.98715 4.53208 1809 ft 201 kts 194°
2026-04-17 08:09 50.97386 4.52680 1535 ft 194 kts 193°
2026-04-17 08:10 50.96077 4.52175 1284 ft 190 kts 194°
2026-04-17 08:10 50.94832 4.51624 1101 ft 182 kts 194°
2026-04-17 08:10 50.93599 4.51131 790 ft 182 kts 192°
2026-04-17 08:10 50.92369 4.50660 467 ft 183 kts 196°
2026-04-17 08:11 50.91143 4.50147 127 ft 180 kts 193°
2026-04-17 08:11 50.90296 4.49801 127 ft 47 kts 194°
2026-04-17 08:11 50.90044 4.49693 131 ft 35 kts 195°
2026-04-17 08:11 50.89826 4.49616 142 ft 29 kts 196°
2026-04-17 08:12 50.89642 4.49534 153 ft 28 kts 199°
2026-04-17 08:12 50.89530 4.49481 160 ft 7 kts 200°
2026-04-17 08:12 50.89502 4.49410 163 ft 8 kts 265°
2026-04-17 08:12 50.89537 4.49322 160 ft 12 kts 307°
2026-04-17 08:13 50.89594 4.49198 154 ft 15 kts 305°
2026-04-17 08:13 50.89694 4.49164 148 ft 16 kts 13°
2026-04-17 08:13 50.89818 4.49215 141 ft 21 kts 13°
2026-04-17 08:14 50.90128 4.49340 129 ft 14 kts 16°
2026-04-17 08:14 50.90232 4.49382 126 ft 17 kts 13°
2026-04-17 08:14 50.90317 4.49406 124 ft 11 kts 16°
2026-04-17 08:14 50.90432 4.49451 121 ft 22 kts 14°
2026-04-17 08:15 50.90581 4.49520 123 ft 19 kts 14°
2026-04-17 08:15 50.90677 4.49562 123 ft 10 kts 20°
2026-04-17 08:15 50.90746 4.49594 120 ft 12 kts
2026-04-17 08:15 50.90762 4.49582 123 ft 4 kts 309°
2026-04-17 08:16 50.90767 4.49507 123 ft 10 kts 256°
2026-04-17 08:16 50.90731 4.49383 120 ft 15 kts 244°
2026-04-17 08:16 50.90682 4.49214 120 ft 17 kts 249°
2026-04-17 08:16 50.90641 4.49072 117 ft 15 kts 245°
2026-04-17 08:17 50.90606 4.48933 117 ft 16 kts 246°
2026-04-17 08:17 50.90560 4.48797 118 ft 20 kts 239°
2026-04-17 08:17 50.90506 4.48598 117 ft 17 kts 250°
2026-04-17 08:17 50.90466 4.48560 120 ft 7 kts 165°
2026-04-17 08:18 50.90442 4.48572 118 ft 7 kts 160°
2026-04-17 08:18 50.90407 4.48595 118 ft 4 kts 155°
2026-04-17 08:18 50.90406 4.48596 119 ft 0 kts 156°